Location: Kerb�bon
(47.7970°N, 3.3487°W)
Time: 09:55:45
(UTC+00:00)

NOSS 3-4 (C) - Pass Details

Date: 12 May 2021
Orbit: 873 x 1339 km, 63.4° (Epoch: 06 May)

Event Time Altitude Azimuth Distance (km) Brightness Sun altitude
Rises 20:24:05 0° 318° (NW) 3,737 8.7 -6.9°
Reaches altitude 10° 20:26:43 10° 325° (NW) 2,848 7.4 -7.2°
Maximum altitude 20:33:14 47° 38° (NE) 1,465 4.5 -8.1°
Drops below altitude 10° 20:40:28 10° 111° (ESE) 3,168 5.6 -9.0°
Enters shadow 20:40:50 - 112° (ESE) 3,287 5.7 -9.0°
